Regional Weather Roundup
Issued by NWS Charleston, SC

Current Version | Previous Version | Graphics & Text | Print | Product List | Glossary On
Versions: 1 2 3 4 5 6 7 8 9 10 11 12 13 14 15 16 17 18 19 20 21 22 23 24 25 26 27 28 29 30 31 32 33 34 35 36 37 38 39 40 41 42 43 44 45 46 47 48 49 50
000
ASUS42 KCHS 191826
RWRCHS

REGIONAL WEATHER ROUNDUP
NATIONAL WEATHER SERVICE CHARLESTON SC
200 PM EDT SUN APR 19 2015

NOTE: "FAIR" INDICATES FEW OR NO CLOUDS BELOW 12,000 FEET WITH NO
SIGNIFICANT WEATHER AND/OR OBSTRUCTIONS TO VISIBILITY.

NOT ALL STATIONS ARE QUALITY CONTROLLED BY THE NATIONAL
WEATHER SERVICE. USE DATA WITH CAUTION...ESPECIALLY
DEWPOINT OBSERVATIONS.

SCZ027-030-031-034>040-042>050-191900-
...SOUTHEAST SOUTH CAROLINA...

CITY           SKY/WX    TMP DP  RH WIND       PRES   REMARKS
N CHARLESTON   LGT RAIN  74  69  85 SE13      29.93S
6HR MIN TEMP:  68; 6HR MAX TEMP:  74; 6HR PCP: TRACE;

WATERFRONT PRK   N/A     72 N/A N/A SE10        N/A
MOUNT PLEASANT MOCLDY    73  72  94 E7        29.92S
PINOPOLIS      NOT AVBL
MONCKS CORNER  CLOUDY    73  68  83 S7        29.92R
SUMMERVILLE    CLOUDY    73  72  94 CALM      29.91F
BEAUFORT MCAS    N/A    N/A N/A N/A MISG      29.91F
BEAUFORT ARPT  CLOUDY    73  72  94 SE3       29.89F FOG
HILTON HEAD IS CLOUDY    73  72  94 S6        29.93F
WALTERBORO     CLOUDY    73  70  88 SE8       29.90F
ALLENDALE      CLOUDY    79  72  78 S9        29.87F

...SOUTHERN MIDLANDS AND PEE DEE...

CITY           SKY/WX    TMP DP  RH WIND       PRES   REMARKS
GEORGETOWN     NOT AVBL
KINGSTREE      NOT AVBL
ORANGEBURG     LGT RAIN  73  68  84 S10       29.90F
6HR MIN TEMP:  67; 6HR MAX TEMP:  73;

BARNWELL       CLOUDY    75  72  88 S6        29.88F
AIKEN          MOCLDY    72  68  88 SE9       29.90F
MANNING        RAIN      70  61  73 SE7       29.91R
COLUMBIA       CLOUDY    72  67  84 SE9       29.89S
6HR MIN TEMP:  67; 6HR MAX TEMP:  72; 6HR PCP:  0.52;

SUMTER         CLOUDY    71  68  92 SE10      29.87F
6HR MIN TEMP:  66; 6HR MAX TEMP:  71; 6HR PCP:  0.15;

FLORENCE       LGT RAIN  72  69  90 SE7       29.91F FOG
6HR MIN TEMP:  65; 6HR MAX TEMP:  73; 6HR PCP:  0.19;

MYRTLE BEACH   CLOUDY    72  66  83 SE9       29.96R
N MYRTLE BEACH CLOUDY    70  66  87 E9        29.94S
6HR MIN TEMP:  68; 6HR MAX TEMP:  72;


$$

GAZ063-065-086>088-099>101-113>116-118-119-134>141-150-191900-
...SOUTHEAST GEORGIA...

CITY           SKY/WX    TMP DP  RH WIND       PRES   REMARKS
SAVANNAH ARPT  CLOUDY    81  70  69 S14G21    29.87F
6HR MIN TEMP:  70; 6HR MAX TEMP:  80; 6HR PCP:  0.20;

HUNTER AAF     CLOUDY    80  75  85 SE9       29.86F
6HR MIN TEMP:  70; 6HR MAX TEMP:  80; 6HR PCP:  0.15;

FORT STEWART   CLOUDY    80  71  74 SE8       29.85F
6HR MIN TEMP:  70; 6HR MAX TEMP:  81; 6HR PCP:  0.09;

STATESBORO       N/A     79  76  90 SE7       29.85F
SYLVANIA       CLOUDY    77  73  86 S6        29.87F
CLAXTON        MOCLDY    79  72  78 S3        29.86F

...CSRA...CENTRAL AND FAR SOUTHEAST GEORGIA...

CITY           SKY/WX    TMP DP  RH WIND       PRES   REMARKS
THOMSON        CLOUDY    74  74  97 CALM      29.87F
AUGUSTA-BUSH   CLOUDY    76  70  82 SE6       29.85F
6HR MIN TEMP:  68; 6HR MAX TEMP:  76; 6HR PCP:  0.02;

AUGUSTA-DANIEL LGT RAIN  76  69  79 SE7       29.87F
SWAINSBORO     NOT AVBL
VIDALIA        CLOUDY    75  72  88 S5        29.86F
EASTMAN        TSTM      67  67 100 SW7       29.91F
HAZLEHURST     MOCLDY    77  73  87 CALM      29.85F
ALMA           TSTM      74  70  87 SW7       29.87F FOG
6HR MIN TEMP:  69; 6HR MAX TEMP:  78; 6HR PCP: TRACE;

WAYCROSS       HVY RAIN  79  76  91 W21G33    29.85F
JESUP          MOCLDY    82  73  74 S6        29.85F
BAXLEY         LGT RAIN  79  73  83 S3        29.85F
BRUNSWICK      CLOUDY    82  70  65 SE12      29.87F
SAINT SIMONS   CLOUDY    76  71  85 SE13      29.88F
6HR MIN TEMP:  71; 6HR MAX TEMP:  78;


$$

SCZ027-028-034-036>038-045-046-048>050-GAZ119-141-191900-
...LAKE AND SUPPLEMENTAL COASTAL OBSERVATIONS...

STATION/POSITION TIME  TEMP    WIND        PRES    WAVE   SWELL
                       AIR SEA DIR/SP/G            HT/PER HT/PER/DIR
                 (UTC) (F)     (DEG/KT/KT) (MB)    (FT/S) (FT/S/D)
UPR LAKE MARION  NOT AVBL
WINYAH BAY       NOT AVBL
LAKE MURRAY      1700   68     130/  4/  7 1011.9S
ACE BASIN NERRS  NOT AVBL
FORT PULASKI     1800   76 72  150/  6/  9 1012.7F
SAPELO ISLAND    1700   80     160/ 11     1012.0F

$$

ANZ835-935-AMZ111-154-330-350-352-354-370-450-454-472-191900-
...C-MAN AND BUOY OBSERVATIONS...

STATION/POSITION TIME  TEMP    WIND        PRES    WAVE   SWELL
                       AIR SEA DIR/SP/G            HT/PER HT/PER/DIR
                 (UTC) (F)     (DEG/KT/KT) (MB)    (FT/S) (FT/S/D)
BUOY 41004       1750   74 75  110/ 12/ 16 1012.7F   3/ 9   2/ 9
BUOY 41008       1750   71 70  160/  6/  6 1012.8F   2/ 9   2/ 90/ 9
FOLLY BEACH CMAN 1800   69     130/  6/  6 1013.3R
CAPERS NEARSHORE NOT AVBL
FRIPP NEARSHORE  1700   70     150/  6/  8 1013.6R


STATION/POSITION TIME  TEMP    WIND        PRES    WAVE   SWELL
                       AIR SEA DIR/SP/G            HT/PER HT/PER/DIR
                 (UTC) (F)     (DEG/KT/KT) (MB)    (FT/S) (FT/S/D)
5E ST. MARYS GA  1721      73                N/A     2/10   2/ 80/12
FRYING PAN BUOY  1750   75 73  130/ 16/ 19 1014.4F   4/ 4   2/120/ 8
BUOY 41025       1750   74 75  120/ 17/ 21 1015.9F   4/12   3/ 60/12
CAPE LOOKOUT NC  1800   68     140/  9/ 10 1015.4R
BUOY 41002       1750   72 75  110/ 12/ 14 1016.0F   4/12   3/ 60/12
BUOY 41010       1720   79 79  170/ 10/ 12 1014.5R
ST AUGUSTINE FL  1800   74 72  150/  6/  7 1013.2F


$$



USA.gov is the U.S. government's official web portal to all federal, state and local government web resources and services.